Wetbulb
55.97 56.05 55.62 55.14 55.01 55.51 55.09 55.08 54.80 55.42 56.00 56.19 56.26 55.95 56.54 56.69 56.30 50.79 46.50 53.00 54.06 58.27 57.85 52.64 51.14 50.14 47.96 44.63 46.03 44.63 34.68 31.11 34.43 38.19 41.01 46.16 45.60 50.25 51.84 49.70 51.19 52.37 57.92 68.94 68.08
55.79 55.80 55.76 55.38 54.99 54.98 55.00 55.12 55.34 55.42 55.44 56.00 56.00 56.24 56.45 56.71 51.03 48.93 55.32 59.48 58.43 58.77 52.60 51.08 49.43 49.24 43.09 41.92 42.76 39.89 32.70 36.00 41.63 43.13 42.85 46.02 46.95 48.17 48.49 48.84 48.92 51.01 67.63 70.35 69.78
55.79 55.26 55.48 55.28 55.16 54.89 55.01 54.78 54.95 55.15 55.40 55.44 55.48 55.50 56.28 55.87 47.37 48.76 59.88 59.36 58.68 57.40 54.04 52.12 50.35 47.30 41.04 41.88 42.12 39.28 37.17 41.94 43.77 45.10 45.84 46.14 47.11 49.39 47.29 45.86 47.94 48.59 52.86 68.72 68.18
55.49 55.06 54.88 54.53 54.45 54.17 54.02 54.65 54.81 55.10 55.35 55.43 55.26 55.54 56.78 52.00 40.51 51.12 60.55 60.14 59.55 56.41 53.03 49.89 46.53 41.94 39.36 39.22 42.51 37.65 42.67 42.88 43.89 45.89 44.81 44.20 46.79 46.08 47.30 47.68 50.92 51.61 52.16 61.53 66.25
54.89 54.79 54.49 54.24 53.97 53.63 53.82 54.04 54.72 54.54 54.65 54.89 55.50 55.95 52.09 46.62 47.69 56.23 61.63 60.58 57.95 55.34 51.28 47.56 43.81 41.96 38.09 41.04 42.63 40.11 42.86 45.85 46.89 45.74 43.31 45.55 44.61 45.62 46.49 49.94 51.86 52.11 52.65 58.60 67.37
54.35 54.06 53.77 53.77 53.51 53.30 53.42 53.63 53.71 54.08 54.30 54.41 55.06 56.04 49.56 42.58 55.43 58.71 58.50 56.20 55.77 52.19 50.18 47.81 42.99 44.28 41.37 39.11 38.47 42.90 42.50 42.77 44.46 44.41 44.44 43.66 44.27 44.43 47.12 50.14 50.66 51.11 51.24 54.34 64.90
54.02 53.86 54.16 53.93 53.78 53.57 53.63 53.76 54.17 54.38 54.72 55.24 55.85 54.19 48.06 46.54 55.49 57.87 57.34 53.39 53.62 53.58 49.52 49.77 47.20 43.87 42.40 38.84 42.05 42.44 37.72 40.13 42.26 43.75 43.08 45.36 41.56 43.01 47.53 48.70 48.84 49.86 50.98 52.36 59.07
54.66 54.33 54.00 54.00 54.29 54.21 54.16 54.17 54.21 54.46 54.89 55.90 55.88 51.77 44.91 55.19 53.24 54.05 54.23 52.75 54.11 53.57 52.31 51.00 48.61 43.54 40.05 41.52 41.08 37.72 35.02 30.83 38.11 43.23 44.38 42.42 35.81 44.21 47.36 45.76 46.88 49.08 50.52 52.21 51.99
54.50 54.12 54.12 54.21 54.45 54.50 54.23 53.80 54.09 54.84 55.75 56.19 51.13 48.49 45.83 56.76 51.79 53.10 53.33 52.10 53.81 53.60 52.26 53.92 47.68 42.72 41.45 35.53 31.69 32.33 27.89 31.33 35.95 41.77 41.94 40.38 37.26 44.00 47.11 46.30 45.76 46.66 48.49 50.51 51.17
54.29 53.65 54.00 54.08 54.41 54.43 53.86 53.82 53.18 53.80 54.57 55.57 53.80 46.24 49.22 50.44 52.99 54.45 54.56 54.81 51.98 51.22 49.15 46.99 42.26 38.20 36.47 32.73 28.12 30.37 32.20 34.57 34.66 37.24 39.11 37.72 38.22 42.81 45.54 45.97 46.04 46.09 48.07 48.99 50.58
54.07 53.45 53.59 54.04 54.23 53.97 50.36 49.79 44.39 44.27 49.12 47.23 48.19 49.46 51.44 54.94 55.66 53.39 55.95 53.84 52.20 48.11 41.18 44.40 38.29 33.88 37.63 40.56 39.44 38.91 37.75 35.93 38.72 39.99 37.30 37.32 37.85 40.38 43.09 44.03 44.75 45.65 46.82 47.26 49.09
53.47 53.41 53.45 53.57 53.65 53.66 48.71 48.52 50.93 49.68 43.74 51.13 51.45 51.59 53.94 54.46 50.42 52.15 55.45 48.56 46.61 41.32 44.14 41.33 37.75 43.37 44.46 43.12 41.45 40.46 37.45 36.66 39.53 40.72 38.20 37.96 37.51 40.83 42.75 43.11 44.54 45.99 47.18 47.16 47.73
52.85 52.83 53.12 53.24 52.92 48.98 48.88 52.49 54.98 51.67 41.94 48.58 52.60 49.84 47.39 50.22 48.70 49.67 52.31 49.41 45.08 42.14 41.65 38.86 41.78 46.50 44.34 41.01 39.08 38.88 36.35 35.64 36.26 39.87 40.85 38.15 35.63 38.38 42.07 44.11 46.30 47.04 48.20 48.95 47.89
52.48 52.41 52.73 52.01 48.86 48.78 48.64 51.29 54.55 52.88 39.28 44.07 44.69 46.77 48.14 48.62 46.99 53.96 54.42 49.74 45.18 41.82 42.57 40.36 44.84 44.31 42.49 41.06 40.54 35.96 41.58 39.38 38.54 36.20 29.78 37.95 26.68 34.22 38.88 41.15 44.32 46.30 46.32 48.03 49.17
52.12 52.52 52.52 51.65 46.34 46.91 50.05 50.55 52.56 51.26 23.28 44.29 44.56 50.21 48.76 45.89 48.98 48.57 53.80 49.82 42.66 42.85 41.71 38.86 41.05 40.51 40.10 41.49 43.35 38.56 42.71 41.00 39.98 36.40 33.90 33.96 30.43 32.71 38.57 38.87 42.28 45.05 45.65 45.77 48.52
51.89 52.20 51.90 50.23 47.07 50.27 51.36 51.04 51.59 34.95 25.90 40.94 44.44 43.21 42.93 45.43 45.44 47.41 49.92 49.25 48.50 42.28 41.96 41.27 44.82 42.38 42.15 45.14 44.78 45.26 41.38 39.54 38.78 34.78 28.38 32.56 30.66 29.71 34.93 39.04 41.62 43.76 45.19 46.39 48.10
51.64 51.91 49.76 51.84 47.36 49.38 49.60 48.11 36.07 26.43 41.60 38.11 39.71 42.48 41.32 41.66 42.89 43.20 41.95 39.50 37.10 32.21 33.20 38.12 38.66 43.33 46.55 41.18 42.50 40.11 36.79 29.89 27.40 28.25 23.80 34.86 30.67 32.12 38.98 42.69 43.68 43.06 44.30 46.20 48.03
50.19 50.31 50.57 52.23 50.51 50.60 47.37 38.74 28.92 37.75 38.03 43.85 42.62 41.95 38.75 41.36 41.00 40.97 40.47 36.66 40.46 37.34 33.22 32.39 30.32 39.80 44.54 41.51 39.94 39.54 36.64 30.55 22.99 25.24 26.82 34.98 29.08 34.23 42.82 44.99 45.81 47.39 45.10 46.15 46.78
48.93 48.66 51.88 53.83 51.06 48.94 42.00 31.32 31.77 37.69 42.76 41.20 40.95 37.26 36.74 40.40 39.89 37.99 37.40 37.72 39.69 38.37 32.70 33.70 34.24 43.58 44.47 45.05 43.23 39.67 34.99 39.69 31.86 33.87 29.29 30.16 35.55 40.11 42.55 43.66 45.22 45.72 46.97 45.16 46.52
43.57 47.68 50.04 50.97 50.63 46.93 38.82 36.52 38.09 45.20 45.38 43.01 35.17 38.76 33.81 36.73 36.58 36.30 36.49 42.17 40.56 41.92 40.32 37.53 32.96 41.70 44.10 45.41 45.51 41.93 42.94 35.42 34.15 27.73 26.83 32.85 34.02 32.81 41.94 45.44 47.81 45.07 45.00 45.15 46.39
46.14 45.69 50.54 50.16 48.97 42.55 34.18 36.34 42.11 46.74 45.85 41.45 37.83 36.63 37.29 36.66 37.06 35.53 37.11 41.50 44.12 41.53 40.75 40.03 38.96 37.74 41.50 40.20 38.12 39.04 39.08 38.98 37.21 34.91 31.21 28.26 32.66 42.82 43.99 46.42 48.29 50.20 50.56 47.66 45.50
41.68 40.04 50.42 49.82 40.31 36.86 35.71 41.11 44.98 44.62 46.19 44.45 42.01 39.84 38.19 38.33 36.10 36.79 37.08 41.11 45.68 42.34 37.69 40.91 36.83 34.53 36.33 42.95 46.20 43.27 41.87 40.89 34.88 33.48 34.46 33.99 35.12 44.61 45.49 47.19 49.42 49.16 52.06 52.07 46.18
38.80 41.16 49.25 47.47 33.80 35.19 40.08 43.72 45.46 43.05 41.92 41.75 40.60 41.99 41.00 37.21 33.58 38.56 40.16 45.03 45.64 41.93 38.25 39.59 34.17 33.26 33.50 38.86 42.95 40.06 41.75 42.81 41.90 39.38 35.29 33.22 33.34 46.22 48.29 47.52 49.54 48.40 54.29 52.58 48.30
41.10 37.53 40.31 40.17 39.92 37.30 36.57 39.22 39.82 44.68 43.26 43.00 41.66 41.92 38.40 35.99 38.35 37.02 38.41 43.43 45.62 43.74 47.76 44.29 35.88 36.57 29.13 34.38 40.11 38.23 42.06 43.93 41.31 35.48 35.98 36.23 37.75 42.32 45.94 46.08 47.05 48.94 53.86 50.19 56.14
40.86 36.62 37.94 33.05 36.59 37.02 36.91 39.23 38.10 37.05 41.43 41.88 39.74 40.30 37.27 33.25 35.46 35.97 39.20 40.74 45.03 46.44 42.45 40.83 34.84 36.62 38.33 40.64 42.79 40.81 40.03 42.15 40.31 40.71 35.94 37.75 39.56 45.09 46.08 45.74 46.33 51.28 57.37 57.77 58.57
39.65 37.80 39.03 36.52 38.35 38.04 37.11 35.78 37.93 38.91 37.74 38.57 36.75 40.53 38.76 33.64 36.70 35.22 38.09 39.24 40.32 41.62 40.15 40.30 33.39 36.99 37.36 41.56 43.35 39.71 41.40 43.95 43.83 43.51 43.04 42.61 43.39 48.56 48.64 47.33 46.30 50.09 55.32 56.67 56.53
42.41 43.09 39.22 37.47 36.91 35.51 34.98 37.83 39.19 38.82 40.59 42.20 40.69 38.68 37.98 40.05 41.75 42.57 42.62 43.92 43.73 41.81 39.70 40.94 39.25 35.63 32.33 39.27 40.67 37.28 40.27 43.27 43.84 43.76 44.00 41.49 45.61 48.65 46.55 44.80 44.37 47.12 51.03 52.84 54.61
MSLP
1019.57 1019.19 1018.80 1018.52 1018.17 1017.89 1017.67 1017.47 1017.28 1017.03 1016.75 1016.43 1016.10 1015.77 1015.30 1015.01 1014.40 1014.07 1013.67 1012.45 1012.30 1011.95 1011.95 1011.66 1011.18 1010.94 1011.05 1011.19 1010.95 1011.19 1011.98 1011.51 1010.52 1009.65 1008.23 1006.77 1005.95 1003.97 1003.81 1002.94 1002.35 1001.65 1000.22 999.07 1000.02
1019.42 1019.05 1018.70 1018.38 1018.09 1017.80 1017.57 1017.34 1017.08 1016.84 1016.60 1016.32 1016.06 1015.60 1015.03 1014.81 1014.32 1013.55 1012.36 1012.07 1012.13 1011.97 1011.88 1011.73 1011.40 1011.36 1011.35 1011.08 1010.98 1011.30 1011.53 1010.67 1010.01 1009.24 1008.18 1006.97 1006.15 1005.31 1004.21 1002.86 1002.28 1000.98 998.79 998.52 1000.41
1019.35 1018.95 1018.54 1018.22 1017.91 1017.59 1017.37 1017.19 1016.89 1016.69 1016.45 1016.17 1015.92 1015.55 1014.94 1014.76 1014.25 1012.77 1012.03 1012.02 1011.89 1011.77 1011.73 1011.73 1011.57 1011.62 1011.55 1011.21 1010.99 1010.72 1010.53 1009.81 1009.11 1008.52 1007.85 1006.78 1005.78 1005.01 1004.24 1003.32 1002.88 1001.97 1001.85 1000.14 1000.67
1019.35 1018.86 1018.45 1018.09 1017.74 1017.42 1017.22 1017.00 1016.71 1016.50 1016.22 1016.07 1015.79 1015.36 1014.75 1014.51 1013.83 1012.25 1011.90 1011.75 1011.74 1011.78 1011.74 1011.52 1011.42 1011.50 1011.60 1011.47 1010.88 1010.82 1009.99 1009.31 1008.45 1007.89 1007.36 1006.48 1005.59 1004.19 1003.71 1003.50 1003.12 1001.95 1001.66 1003.65 998.77
1019.23 1018.69 1018.27 1017.88 1017.55 1017.24 1016.92 1016.76 1016.49 1016.31 1016.12 1016.00 1015.73 1015.31 1014.84 1014.25 1012.84 1011.59 1011.59 1011.49 1011.74 1011.79 1011.71 1011.77 1011.91 1012.05 1011.97 1011.67 1010.78 1010.26 1009.72 1009.03 1008.25 1007.70 1007.18 1006.23 1005.27 1004.51 1001.94 1003.10 1002.87 1001.87 1001.19 1000.48 1000.81
1019.07 1018.53 1018.10 1017.71 1017.31 1017.03 1016.71 1016.45 1016.25 1016.09 1015.98 1015.81 1015.64 1015.35 1014.98 1013.39 1011.25 1011.17 1011.23 1011.64 1011.53 1011.57 1011.44 1011.25 1011.58 1011.64 1011.65 1011.76 1011.68 1010.45 1009.94 1009.11 1008.11 1007.29 1006.56 1005.97 1005.04 1004.27 1001.63 1002.64 1002.45 1001.95 1001.31 1000.77 1000.93
1018.90 1018.31 1017.82 1017.38 1017.07 1016.79 1016.50 1016.19 1015.93 1015.93 1015.81 1015.62 1015.49 1015.35 1014.80 1012.28 1010.81 1010.90 1011.28 1010.89 1010.56 1010.75 1010.81 1010.79 1010.85 1011.47 1011.74 1011.67 1010.93 1010.59 1009.93 1008.96 1008.02 1007.26 1006.55 1005.85 1004.72 1002.98 1002.59 1002.41 1002.28 1001.77 1001.39 1001.01 1000.71
1018.79 1018.21 1017.71 1017.19 1016.83 1016.56 1016.26 1016.03 1015.75 1015.79 1015.70 1015.53 1015.45 1015.33 1013.85 1010.91 1010.87 1010.97 1010.84 1010.59 1010.16 1009.89 1010.14 1010.25 1010.32 1011.02 1011.60 1011.56 1011.25 1010.88 1010.46 1009.36 1007.63 1006.83 1005.96 1006.03 1004.73 1002.93 1002.54 1002.33 1002.17 1001.61 1001.32 1001.27 1001.09
1018.43 1017.99 1017.55 1017.01 1016.49 1016.15 1015.83 1015.69 1015.57 1015.59 1015.52 1015.45 1015.53 1015.11 1012.71 1010.54 1010.47 1009.67 1009.66 1009.88 1009.65 1009.49 1009.58 1009.74 1010.11 1010.90 1011.35 1012.00 1012.27 1011.50 1011.05 1009.59 1007.88 1006.79 1006.24 1006.04 1004.73 1003.15 1003.01 1002.24 1001.83 1001.60 1000.95 1000.94 1000.63
1018.16 1017.63 1017.27 1016.78 1016.25 1015.80 1015.35 1015.26 1015.50 1015.49 1015.31 1015.01 1014.92 1014.70 1011.57 1010.03 1009.31 1008.92 1008.75 1009.19 1009.38 1009.68 1010.05 1010.18 1010.59 1011.02 1011.56 1012.44 1012.47 1011.71 1010.92 1009.62 1008.33 1006.88 1006.35 1005.88 1004.42 1003.47 1003.13 1002.39 1001.74 1001.41 1000.53 1000.58 1000.29
1018.03 1017.39 1016.83 1016.46 1015.98 1015.54 1015.07 1014.97 1015.35 1015.13 1014.69 1013.59 1012.77 1012.02 1010.21 1008.87 1008.47 1008.54 1008.54 1009.07 1009.49 1010.02 1010.63 1010.67 1011.23 1011.35 1011.06 1011.16 1011.10 1011.04 1010.45 1009.27 1008.06 1007.09 1006.61 1005.74 1004.71 1003.42 1002.90 1002.01 1001.19 1001.23 1000.53 1000.29 999.96
1017.71 1017.11 1016.44 1015.86 1015.61 1015.33 1015.41 1014.75 1013.53 1012.85 1012.57 1011.67 1011.01 1010.81 1009.66 1008.71 1008.38 1008.53 1008.58 1009.47 1009.83 1010.39 1010.77 1011.09 1010.42 1009.52 1009.59 1009.90 1010.44 1010.50 1010.04 1008.67 1007.50 1006.98 1006.63 1005.58 1004.33 1003.37 1002.68 1001.47 1000.81 1000.67 1000.21 1000.01 999.81
1017.55 1016.92 1016.06 1015.32 1015.07 1015.23 1014.78 1013.46 1012.10 1011.82 1012.49 1011.01 1010.02 1009.35 1008.71 1008.43 1008.33 1008.38 1008.93 1009.24 1009.83 1010.44 1010.80 1010.81 1009.25 1008.72 1009.20 1009.35 1009.83 1009.87 1009.87 1008.83 1008.24 1007.30 1006.69 1005.91 1004.42 1003.18 1001.95 1000.97 1000.10 999.54 999.10 999.03 999.50
1017.23 1016.63 1015.99 1014.92 1014.83 1014.61 1013.63 1012.14 1011.73 1011.65 1012.43 1011.12 1010.13 1009.13 1008.85 1008.47 1008.56 1008.30 1008.57 1009.35 1010.03 1010.68 1010.77 1010.21 1008.65 1008.70 1008.55 1008.57 1009.50 1009.24 1008.30 1008.35 1007.88 1007.75 1006.76 1005.71 1004.17 1002.99 1001.93 1000.43 999.65 998.69 998.35 998.03 998.67
1016.89 1016.18 1015.69 1015.44 1015.23 1014.47 1012.66 1011.70 1011.43 1011.99 1013.01 1011.62 1011.00 1009.86 1009.86 1009.48 1009.53 1008.90 1009.13 1009.47 1010.36 1010.93 1011.37 1009.60 1008.59 1008.64 1008.11 1007.60 1008.07 1007.64 1007.58 1007.68 1007.62 1007.44 1007.00 1005.47 1005.05 1001.85 1001.44 1000.13 998.77 997.61 997.26 997.27 997.81
1016.33 1015.83 1015.59 1015.16 1015.15 1013.17 1012.00 1011.75 1011.83 1013.09 1013.44 1012.75 1012.07 1011.13 1010.69 1010.30 1009.97 1009.59 1009.93 1010.26 1010.82 1011.27 1010.84 1009.57 1008.71 1007.97 1007.50 1006.69 1006.97 1007.07 1007.77 1007.79 1007.61 1007.69 1006.73 1004.49 1004.45 1001.23 999.92 998.73 997.81 996.98 996.56 996.43 997.23
1015.77 1015.04 1015.13 1014.51 1013.61 1011.96 1012.06 1012.31 1013.56 1014.52 1014.41 1013.74 1012.79 1012.21 1011.72 1011.36 1010.99 1010.71 1011.09 1011.73 1012.37 1012.23 1011.23 1009.82 1008.37 1007.36 1007.09 1006.79 1006.99 1007.40 1007.92 1007.97 1007.75 1006.93 1005.77 1003.73 1003.80 1000.26 998.76 998.11 997.43 996.77 996.37 995.89 996.60
1015.49 1014.56 1014.30 1013.35 1012.29 1012.45 1013.06 1013.83 1014.95 1015.43 1014.78 1014.16 1013.63 1012.82 1012.64 1012.55 1011.95 1011.79 1011.72 1012.29 1012.77 1013.15 1012.58 1011.61 1009.46 1007.89 1007.09 1007.18 1006.90 1007.61 1008.53 1008.47 1008.08 1006.88 1005.72 1004.27 1002.40 999.16 998.21 997.17 996.71 996.28 996.18 995.66 996.45
1015.49 1014.58 1014.05 1012.44 1012.02 1012.71 1013.87 1015.36 1015.75 1015.10 1014.59 1014.35 1013.89 1013.49 1013.48 1013.33 1013.00 1012.60 1012.23 1012.45 1012.71 1013.00 1013.36 1012.63 1010.24 1007.85 1007.22 1006.51 1006.64 1007.75 1008.08 1008.34 1008.11 1006.75 1005.88 1003.74 1001.50 999.00 997.55 996.99 996.50 996.03 996.08 995.73 995.54
1017.15 1016.05 1014.15 1012.39 1012.04 1013.06 1014.70 1015.84 1015.23 1014.51 1014.31 1014.32 1014.61 1014.43 1014.15 1013.80 1013.54 1013.08 1012.59 1012.33 1012.55 1012.63 1012.81 1012.62 1011.24 1008.07 1006.30 1006.45 1006.54 1006.82 1007.37 1008.13 1007.99 1006.77 1005.43 1003.06 1001.57 1000.78 999.75 998.93 998.05 996.95 995.97 995.42 995.37
1017.37 1016.45 1013.79 1012.81 1012.67 1014.80 1016.24 1015.95 1015.05 1014.44 1014.03 1014.25 1014.53 1014.58 1014.51 1014.25 1013.97 1013.31 1012.79 1012.15 1012.28 1012.36 1012.59 1012.29 1012.25 1008.92 1007.62 1006.31 1006.16 1006.65 1006.90 1007.40 1007.58 1006.77 1006.08 1004.49 1002.29 1001.89 1000.87 1000.10 998.98 997.89 996.65 996.05 995.52
1019.49 1017.56 1014.31 1013.37 1014.93 1016.42 1017.03 1016.12 1014.95 1014.30 1013.87 1013.92 1014.03 1014.29 1014.54 1014.37 1014.00 1013.47 1012.71 1012.21 1012.06 1012.19 1012.36 1012.37 1012.12 1010.06 1007.69 1006.23 1005.79 1005.86 1006.20 1006.73 1006.82 1006.58 1006.10 1004.97 1002.67 1001.43 1001.14 999.93 998.96 997.57 996.23 995.32 995.23
1021.40 1018.91 1015.29 1014.96 1017.33 1018.04 1017.35 1016.46 1015.34 1014.43 1014.15 1014.10 1014.23 1014.35 1014.31 1014.47 1014.34 1013.45 1012.80 1012.16 1011.76 1011.90 1012.19 1012.27 1012.19 1010.74 1007.65 1006.65 1005.91 1006.31 1005.95 1005.86 1005.89 1005.99 1005.57 1004.84 1002.99 1002.23 1001.63 1000.16 999.09 998.05 995.95 994.51 994.64
1022.01 1020.60 1018.40 1018.10 1018.55 1018.69 1018.38 1017.25 1016.07 1014.84 1014.41 1014.29 1014.12 1014.02 1014.19 1014.28 1014.34 1013.64 1013.15 1012.20 1011.62 1011.46 1011.89 1012.29 1012.42 1011.99 1011.00 1009.25 1008.00 1006.88 1005.92 1004.11 1005.32 1005.62 1005.31 1004.58 1003.72 1002.47 1001.51 1000.56 1000.13 998.52 995.78 994.43 995.13
1022.02 1021.87 1021.26 1020.75 1019.65 1019.29 1018.68 1017.60 1016.57 1015.90 1014.97 1014.40 1014.39 1014.26 1014.35 1014.32 1013.92 1013.59 1013.14 1012.52 1011.53 1011.44 1011.71 1012.02 1012.22 1011.26 1010.28 1009.16 1007.96 1007.47 1006.47 1005.62 1005.47 1005.21 1004.90 1004.85 1003.73 1003.21 1003.31 1003.54 1002.20 1000.15 997.30 996.73 997.48
1022.80 1022.69 1022.13 1021.52 1020.61 1020.04 1019.03 1018.13 1017.27 1016.35 1015.86 1015.15 1014.96 1014.45 1014.02 1014.15 1014.15 1013.49 1013.33 1012.69 1012.06 1011.45 1011.76 1011.71 1011.97 1011.19 1009.66 1008.44 1008.01 1007.66 1006.29 1006.39 1005.74 1005.45 1004.33 1004.73 1003.44 1003.95 1004.08 1003.81 1002.79 1001.29 999.86 999.56 999.84
1023.18 1022.62 1022.62 1021.72 1020.87 1020.36 1019.71 1019.09 1018.01 1017.33 1015.81 1015.15 1014.87 1014.33 1013.98 1013.53 1013.13 1012.48 1012.15 1011.91 1011.79 1011.47 1011.78 1011.76 1011.66 1011.31 1009.51 1007.75 1006.97 1007.42 1007.43 1006.68 1006.35 1006.29 1005.55 1004.34 1004.67 1004.65 1003.56 1004.94 1004.94 1003.50 1002.88 1002.39 1001.73
Wind_Speed
17 16 15 15 13 12 12 12 12 12 13 14 15 16 17 17 17 2 3 8 5 4 5 7 4 6 1 4 4 2 2 4 5 3 7 10 10 18 10 12 17 11 20 14 23
17 16 16 15 15 13 12 12 12 13 14 15 15 17 18 17 3 3 8 5 4 4 2 5 6 7 1 3 2 4 3 7 6 6 12 15 17 20 15 21 16 18 12 23 28
19 18 17 16 15 14 13 12 11 12 13 14 16 17 18 13 3 4 4 5 4 2 2 2 5 1 3 1 5 5 9 9 13 13 12 18 20 20 18 19 6 15 14 23 28
20 19 18 17 15 14 13 11 12 11 12 13 14 16 18 2 4 3 8 7 5 3 5 6 6 5 3 5 4 6 9 10 12 16 14 17 18 22 19 16 8 13 11 6 35
21 21 19 17 15 14 13 12 12 12 12 13 13 14 6 3 6 6 11 10 4 3 3 3 4 5 5 8 11 4 5 11 12 11 7 13 18 20 30 14 9 13 12 14 21
22 21 20 17 15 14 12 12 10 10 10 10 11 11 2 3 3 9 10 4 8 4 5 2 2 5 6 4 4 6 11 14 10 14 9 11 13 8 25 8 6 10 10 10 11
23 21 20 17 15 13 12 11 9 9 9 9 8 4 2 9 3 9 9 7 4 5 2 1 1 4 6 8 5 10 11 11 13 6 8 12 13 21 14 5 6 10 8 8 9
21 20 20 18 16 13 12 11 12 9 8 8 4 2 7 7 2 6 8 9 6 2 4 6 3 3 3 4 8 8 5 6 2 7 8 4 10 20 14 7 7 10 9 7 9
21 20 20 18 16 13 11 10 11 8 6 6 1 2 9 7 4 9 8 6 4 3 3 7 4 5 3 3 6 4 6 9 11 6 7 2 11 14 15 13 9 9 8 8 9
22 21 18 17 15 13 12 10 2 5 3 4 5 3 6 2 5 5 7 7 5 2 4 3 1 3 2 4 8 9 14 14 17 5 7 12 19 16 12 15 14 9 12 7 9
24 22 19 16 13 10 7 3 4 2 2 7 6 5 13 9 3 5 3 2 2 1 3 5 2 8 14 13 14 11 16 17 14 8 5 16 17 20 14 16 16 11 14 8 10
25 23 20 17 13 6 1 1 5 5 9 10 16 11 16 10 3 1 3 2 1 7 2 5 12 16 14 17 10 12 18 24 17 6 5 15 21 18 14 18 19 15 17 9 6
25 23 23 21 12 2 2 6 6 4 2 9 5 3 6 1 4 6 7 4 4 5 7 9 14 15 6 1 5 10 11 16 18 11 11 12 19 20 16 15 18 17 17 12 10
26 22 20 25 3 3 6 5 3 6 5 5 6 6 9 7 4 2 6 4 1 5 6 10 10 9 13 13 11 14 11 18 18 8 10 5 14 8 7 17 16 16 13 12 10
28 23 18 9 2 4 7 7 1 6 6 9 7 7 13 9 6 7 6 3 3 5 0 12 17 12 14 12 10 15 13 14 16 11 4 13 5 7 9 13 18 15 14 10 10
29 23 12 4 0 9 7 8 6 8 3 6 11 16 17 10 11 11 4 8 3 5 6 20 14 10 9 13 14 2 6 6 5 4 9 16 10 8 9 16 9 10 13 12 9
32 23 4 1 5 4 6 5 7 7 6 9 14 17 9 17 14 15 3 6 3 9 15 14 5 5 2 6 4 4 3 3 3 3 6 2 9 15 5 9 10 9 9 11 11
34 19 4 5 6 4 5 8 10 4 5 5 9 13 7 15 10 17 1 2 2 2 5 7 11 6 11 5 5 4 3 3 6 3 4 4 7 10 11 19 15 15 8 9 10
23 5 4 6 5 4 8 7 2 4 5 7 8 5 5 17 7 9 6 1 2 2 1 6 8 9 14 12 7 4 5 3 5 3 4 4 7 10 7 9 9 9 6 10 8
4 5 5 8 4 7 8 2 2 1 1 3 6 5 12 15 11 13 6 3 2 4 4 4 10 9 14 3 3 4 6 2 2 4 4 4 3 3 14 17 16 13 8 9 7
4 5 6 8 6 8 4 4 5 3 3 2 3 5 8 7 11 9 6 4 3 4 5 4 5 13 10 3 10 2 2 1 4 2 4 6 3 6 12 15 18 16 14 11 8
4 4 5 5 7 2 3 6 5 4 1 1 4 4 3 10 5 7 6 4 1 2 5 2 3 9 18 16 8 4 3 2 3 3 3 4 6 14 12 16 17 19 16 13 8
4 4 4 8 5 5 6 8 4 5 4 5 3 2 2 5 6 5 6 10 13 1 2 3 2 9 13 5 4 6 17 7 6 1 3 5 6 15 14 18 20 21 22 13 9
3 6 7 6 2 2 4 5 7 6 4 8 4 4 4 3 3 7 8 8 16 8 7 4 3 6 5 14 16 15 20 2 4 3 7 4 12 15 21 24 25 25 8 9 11
3 3 1 6 7 7 2 2 5 8 4 5 5 4 4 4 5 3 10 10 10 3 5 6 4 6 13 17 9 13 20 18 10 5 2 7 8 13 15 16 18 16 16 20 15
3 4 5 5 6 5 4 5 5 8 3 6 5 14 3 2 7 13 11 3 6 5 5 3 3 6 16 5 11 14 16 10 6 13 4 10 7 11 8 15 19 18 16 18 15
4 4 4 5 5 4 2 7 8 7 8 6 9 7 5 5 7 13 12 14 13 11 1 4 3 6 7 15 7 4 8 10 11 17 13 12 10 11 18 14 13 14 15 14 13
Wind_Direction
353 349 350 347 341 335 329 327 325 325 327 329 335 335 331 332 318 296 230 216 193 263 294 276 293 296 355 241 200 101 333 247 257 268 271 302 306 300 295 296 326 312 285 206 145
347 346 346 345 342 334 329 325 325 328 330 333 335 334 329 335 319 284 256 165 192 274 283 356 325 0 311 263 268 145 184 241 224 280 290 288 294 296 310 312 321 319 322 143 149
346 344 341 341 337 334 329 326 323 328 330 332 336 332 323 329 325 319 169 195 228 288 232 255 271 282 286 6 242 223 244 268 272 264 264 282 285 288 290 292 317 323 337 148 156
344 342 339 336 333 331 328 325 321 323 323 330 334 327 323 282 83 220 196 226 232 298 339 333 342 358 310 294 275 303 271 252 268 262 266 265 268 272 274 275 260 283 278 237 163
343 340 339 335 330 327 324 323 319 319 322 327 328 328 352 9 252 191 197 225 225 230 260 308 355 353 324 307 318 282 305 309 293 286 266 273 274 273 271 272 252 270 286 283 240
346 344 341 336 330 325 321 317 311 309 313 324 327 328 357 25 215 180 199 205 242 182 252 70 322 290 277 311 325 298 310 307 302 301 286 277 281 277 277 271 239 276 284 288 190
350 345 339 337 329 323 315 308 299 300 308 315 321 318 333 227 216 191 183 216 210 204 225 197 153 54 330 313 270 300 308 307 284 276 282 284 280 270 289 266 229 261 257 268 239
346 341 340 336 331 323 312 306 303 304 305 307 313 341 252 263 185 185 211 274 236 104 179 202 191 235 176 269 315 295 307 292 269 285 267 205 279 284 287 276 253 262 264 232 243
346 344 341 339 334 323 304 289 288 293 275 283 10 81 276 302 222 229 202 224 195 230 259 251 141 208 354 344 344 326 258 267 289 265 279 38 284 284 327 294 261 261 268 258 255
345 345 342 339 334 325 299 278 248 319 232 227 260 309 270 238 210 215 200 190 220 254 291 268 138 213 307 100 261 268 290 289 288 289 320 308 290 289 297 299 299 244 261 262 266
344 344 341 336 329 326 340 86 25 10 194 218 226 232 277 275 187 215 157 203 221 182 291 288 266 231 242 244 254 260 275 274 288 282 313 283 284 289 300 293 290 288 262 237 256
341 340 336 331 325 308 321 59 237 212 308 234 253 237 252 263 264 148 120 167 148 268 288 323 251 251 250 240 262 295 297 282 287 292 293 281 283 284 280 279 281 270 261 225 233
339 339 333 325 330 92 210 239 262 92 109 300 270 209 317 248 265 231 156 189 218 279 269 235 258 280 320 52 238 241 261 280 283 295 256 281 283 284 266 273 277 265 249 225 192
337 338 334 324 72 312 277 263 256 102 54 298 21 320 1 280 290 227 200 142 289 293 300 257 254 311 304 268 203 260 261 250 263 277 264 176 271 259 271 270 275 269 250 214 180
335 335 336 304 258 327 255 301 145 59 54 319 355 285 313 5 307 335 26 55 274 282 350 265 299 298 277 255 177 240 246 265 258 237 269 262 248 252 219 255 260 261 242 211 183
333 335 342 93 214 237 294 299 59 47 336 349 347 334 345 345 353 340 46 35 53 296 246 265 290 266 243 273 206 255 229 235 259 235 246 245 197 259 233 232 256 247 223 204 173
331 332 299 286 255 289 342 42 51 70 337 319 336 333 324 356 345 348 39 24 58 341 344 316 292 284 248 330 54 77 48 283 269 230 244 269 187 246 247 262 249 271 244 215 151
329 324 201 218 258 7 42 51 60 330 273 293 324 319 19 345 335 340 29 28 91 110 284 334 327 6 335 282 285 78 149 262 288 271 301 272 241 253 228 252 257 261 261 225 152
326 337 322 271 273 88 67 49 189 266 295 330 327 308 338 339 331 335 327 289 219 150 27 334 271 303 301 316 158 143 212 196 260 234 272 231 277 307 246 284 265 261 265 234 171
352 338 286 316 30 62 67 353 269 301 40 1 20 359 320 328 344 345 338 216 267 202 173 241 285 282 319 172 86 170 142 262 225 292 288 286 266 53 7 350 334 314 273 242 187
24 23 269 335 55 43 89 247 273 103 115 61 270 261 288 317 329 326 308 291 200 290 196 279 208 294 308 306 304 159 215 249 286 290 333 314 333 14 3 349 336 325 295 275 198
351 20 310 26 46 44 349 287 274 309 344 280 255 257 317 331 308 310 309 336 292 267 317 227 297 285 294 289 331 103 311 246 282 353 256 229 274 19 346 346 345 327 308 261 179
351 272 319 67 56 335 314 314 286 329 332 353 294 359 295 313 336 284 354 317 355 20 343 315 329 311 334 15 6 3 304 246 219 327 255 307 301 344 350 355 353 337 315 250 153
17 349 327 32 145 145 329 289 317 327 305 327 240 289 301 271 254 283 335 321 316 308 142 176 208 227 240 274 300 309 328 340 157 14 308 304 311 344 7 3 344 329 338 219 130
37 286 240 309 323 334 217 289 335 353 330 301 311 290 300 319 312 280 313 321 313 353 353 144 257 252 263 283 317 21 21 24 66 278 308 321 335 14 23 352 333 335 53 73 78
50 21 350 284 285 310 345 332 348 333 262 312 304 313 245 283 211 295 306 286 266 306 346 302 275 303 306 268 52 57 55 52 1 359 326 18 37 16 36 11 356 14 45 75 83
318 338 105 269 313 357 281 312 315 351 299 330 310 311 309 271 242 262 241 256 250 267 275 280 338 328 285 313 327 11 357 345 358 8 351 0 357 354 42 355 337 6 43 54 69